FW0714 Weather Reports


time (UTC)temp
C
wind
direction
speed
KPH
gust
KPH
rain 1hr
cm
rain 24hr
cm
rain mn
cm
humidity
%
barometer
mb
20260506023717 10 307 3.2 14.5 0.00 0.00 0.00 86 1007.7
20260506023215 10 21 3.2 14.5 0.00 0.00 0.00 86 1007.7
20260506022716 10 25 3.2 11.3 0.00 0.00 0.00 86 1007.7
20260506022218 10 1 4.8 14.5 0.00 0.00 0.00 86 1007.8
20260506021706 10 51 3.2 14.5 0.00 0.00 0.00 86 1007.8
20260506021217 10 3 1.6 14.5 0.00 0.00 0.00 86 1007.9
20260506020712 10 41 4.8 9.7 0.00 0.00 0.00 86 1008.0
20260506020215 10 11 4.8 9.7 0.00 0.00 0.00 85 1008.0
20260506015716 10 79 3.2 14.5 0.00 0.00 0.00 85 1008.0
20260506015207 10 21 3.2 14.5 0.00 0.00 0.00 85 1008.1
20260506014707 10 13 3.2 14.5 0.00 0.00 0.00 85 1008.1
20260506014220 10 0 3.2 9.7 0.00 0.00 0.00 85 1008.1
20260506013710 10 51 1.6 11.3 0.00 0.00 0.00 85 1008.2
20260506012217 10 38 4.8 11.3 0.00 0.00 0.00 84 1008.3
20260506011712 10 7 1.6 11.3 0.00 0.00 0.00 84 1008.3
20260506010209 10 31 3.2 17.7 0.00 0.00 0.00 84 1008.3
20260506005709 10 51 1.6 17.7 0.00 0.00 0.00 84 1008.3
20260506005207 10 48 4.8 11.3 0.00 0.00 0.00 84 1008.3
20260506004715 10 0 3.2 11.3 0.00 0.00 0.00 84 1008.4
20260506004206 10 65 1.6 11.3 0.00 0.00 0.00 84 1008.4
20260506003217 10 97 4.8 9.7 0.00 0.00 0.00 84 1008.5
20260506002720 10 66 4.8 14.5 0.00 0.00 0.00 84 1008.6
20260506002219 10 41 3.2 14.5 0.00 0.00 0.00 84 1008.6
20260506001715 10 49 3.2 14.5 0.00 0.00 0.00 84 1008.6
20260506001217 10 42 1.6 8.0 0.00 0.00 0.00 83 1008.6
20260506000710 10 54 3.2 8.0 0.00 0.00 0.00 83 1008.7
20260506000219 10 44 1.6 11.3 0.00 0.00 0.00 83 1008.8
20260505235708 10 56 1.6 11.3 0.00 0.00 0.00 83 1008.9
20260505235208 10 52 4.8 11.3 0.00 0.00 0.00 83 1008.9
20260505234707 10 16 3.2 11.3 0.00 0.00 0.00 83 1009.0
20260505234209 10 357 1.6 11.3 0.00 0.00 0.00 83 1009.1
20260505233711 10 68 3.2 11.3 0.00 0.00 0.00 82 1009.1
20260505233211 10 10 4.8 9.7 0.00 0.00 0.00 82 1009.1
20260505232712 10 314 3.2 9.7 0.00 0.00 0.00 82 1009.1
20260505231716 10 35 3.2 11.3 0.00 0.00 0.00 82 1009.1
20260505231217 10 0 4.8 16.1 0.00 0.00 0.00 81 1009.1
20260505230712 10 51 3.2 16.1 0.00 0.00 0.00 81 1009.1
20260505230218 10 55 4.8 16.1 0.00 0.00 0.00 81 1009.1
20260505225710 10 73 6.4 16.1 0.00 0.00 0.00 81 1009.2
20260505225215 10 16 4.8 16.1 0.00 0.00 0.00 81 1009.1
20260505224710 10 0 4.8 11.3 0.00 0.00 0.00 81 1009.3
20260505224211 10 0 6.4 9.7 0.00 0.00 0.00 81 1009.3
20260505223714 10 48 3.2 11.3 0.00 0.00 0.00 81 1009.3
20260505223212 10 65 3.2 14.5 0.00 0.00 0.00 81 1009.4
20260505222709 10 21 3.2 14.5 0.00 0.00 0.00 81 1009.3
20260505222217 10 63 4.8 14.5 0.00 0.00 0.00 81 1009.4
20260505221706 10 0 4.8 16.1 0.00 0.00 0.00 82 1009.4
20260505221211 10 39 3.2 16.1 0.00 0.00 0.00 82 1009.4
20260505220716 10 38 6.4 16.1 0.00 0.00 0.00 82 1009.3
20260505220209 10 35 4.8 17.7 0.00 0.00 0.00 82 1009.3
20260505215718 10 55 4.8 17.7 0.00 0.00 0.00 82 1009.4
20260505215209 10 44 3.2 14.5 0.00 0.00 0.00 82 1009.4
20260505214710 10 23 3.2 14.5 0.00 0.00 0.00 82 1009.4
20260505214213 10 82 3.2 14.5 0.00 0.00 0.00 82 1009.5
20260505213718 10 38 3.2 14.5 0.00 0.00 0.00 82 1009.6
20260505213215 10 23 4.8 11.3 0.00 0.00 0.00 82 1009.6
20260505212705 10 37 4.8 11.3 0.00 0.00 0.00 82 1009.6
20260505212212 10 303 3.2 11.3 0.00 0.00 0.00 82 1009.7
20260505211715 10 51 3.2 16.1 0.00 0.00 0.00 82 1009.7
20260505210713 10 93 3.2 14.5 0.00 0.00 0.00 82 1009.7
20260505210209 10 11 3.2 16.1 0.00 0.00 0.00 82 1009.7
20260505205718 10 0 3.2 16.1 0.00 0.00 0.00 82 1009.8
20260505205209 10 3 3.2 16.1 0.00 0.00 0.00 83 1009.8
20260505204708 10 10 4.8 11.3 0.00 0.00 0.00 83 1009.8
20260505204210 10 11 3.2 11.3 0.00 0.00 0.00 83 1009.8
20260505203711 10 30 3.2 11.3 0.00 0.00 0.00 83 1009.9
20260505203211 10 72 4.8 11.3 0.00 0.00 0.00 83 1009.9
20260505202711 10 54 3.2 19.3 0.00 0.00 0.00 83 1009.9
20260505202205 10 51 4.8 19.3 0.00 0.00 0.00 83 1009.9
20260505201709 10 54 4.8 19.3 0.00 0.00 0.00 83 1009.8
20260505201217 10 0 6.4 11.3 0.00 0.00 0.00 82 1009.9
20260505200711 10 13 4.8 11.3 0.00 0.00 0.00 82 1009.8
20260505200217 10 79 3.2 11.3 0.00 0.00 0.00 82 1009.9
20260505195719 10 8 3.2 16.1 0.00 0.00 0.00 82 1009.9
20260505195206 10 131 3.2 20.9 0.00 0.00 0.00 82 1009.9
20260505194720 10 13 4.8 20.9 0.00 0.00 0.00 82 1009.9
20260505192711 10 21 3.2 14.5 0.00 0.00 0.00 82 1009.8
20260505191720 10 62 4.8 20.9 0.00 0.00 0.00 81 1009.7
20260505191218 10 48 3.2 20.9 0.00 0.00 0.00 82 1009.7
20260505190218 11 18 4.8 17.7 0.00 0.00 0.00 82 1009.5
20260505185715 11 16 4.8 14.5 0.00 0.00 0.00 82 1009.5
20260505185210 11 3 4.8 14.5 0.00 0.00 0.00 81 1009.5
20260505184712 11 55 6.4 16.1 0.00 0.00 0.00 81 1009.5
20260505184217 11 0 4.8 17.7 0.00 0.00 0.00 81 1009.4
20260505183711 11 61 4.8 17.7 0.00 0.00 0.00 81 1009.4
20260505183219 11 252 4.8 17.7 0.00 0.00 0.00 81 1009.4
20260505182705 11 0 6.4 11.3 0.00 0.00 0.00 81 1009.4
20260505182220 11 4 4.8 16.1 0.00 0.00 0.00 80 1009.4
20260505181719 11 25 1.6 16.1 0.00 0.00 0.00 80 1009.5
20260505180209 11 48 3.2 14.5 0.00 0.00 0.00 79 1009.4
20260505175705 11 54 4.8 14.5 0.00 0.00 0.00 79 1009.5
20260505175206 12 42 1.6 14.5 0.00 0.00 0.00 79 1009.4
20260505174705 12 10 4.8 14.5 0.00 0.00 0.00 79 1009.4
20260505174209 12 28 3.2 11.3 0.00 0.00 0.00 79 1009.4
20260505173709 12 321 3.2 14.5 0.00 0.00 0.00 78 1009.4
20260505173206 12 75 3.2 14.5 0.00 0.00 0.00 78 1009.4
20260505172713 12 28 1.6 14.5 0.00 0.00 0.00 77 1009.5
20260505172218 12 51 3.2 11.3 0.00 0.00 0.00 77 1009.4
20260505171717 12 45 4.8 9.7 0.00 0.00 0.00 76 1009.5
20260505171209 12 0 1.6 11.3 0.00 0.00 0.00 76 1009.5
20260505170714 12 14 3.2 11.3 0.00 0.00 0.00 75 1009.5
20260505170217 12 227 3.2 11.3 0.00 0.00 0.00 75 1009.6
20260505165707 12 298 3.2 11.3 0.00 0.00 0.00 75 1009.6
20260505164714 12 39 4.8 11.3 0.00 0.00 0.00 75 1009.6
20260505164218 12 289 3.2 16.1 0.00 0.00 0.00 75 1009.6
20260505162220 12 324 3.2 17.7 0.00 0.00 0.00 76 1009.5
20260505161714 12 52 4.8 17.7 0.00 0.00 0.00 75 1009.6
20260505161216 12 44 4.8 17.7 0.00 0.00 0.00 76 1009.6
20260505160711 12 358 3.2 14.5 0.00 0.00 0.00 76 1009.6
20260505160209 12 47 3.2 14.5 0.00 0.00 0.00 76 1009.6
20260505153207 12 63 3.2 11.3 0.00 0.00 0.00 78 1009.8
20260505152732 12 276 3.2 11.3 0.00 0.00 0.00 78 1009.8
20260505151724 12 49 3.2 14.5 0.00 0.00 0.00 77 1009.8
20260505151212 12 55 8.0 14.5 0.00 0.00 0.00 77 1009.9
20260505150710 12 52 3.2 14.5 0.00 0.00 0.00 78 1009.9
20260505150210 12 13 6.4 14.5 0.00 0.00 0.00 79 1009.8
20260505140217 12 62 3.2 8.0 0.00 0.00 0.00 80 1010.2
20260505130211 12 44 6.4 16.1 0.00 0.00 0.00 80 1010.7
20260505124718 12 1 4.8 11.3 0.00 0.00 0.00 80 1010.8
20260505124206 12 80 3.2 9.7 0.00 0.00 0.00 80 1010.9
20260505123715 12 27 3.2 8.0 0.00 0.00 0.00 80 1010.9
20260505123208 12 8 3.2 8.0 0.00 0.00 0.00 81 1010.9
20260505122719 11 319 1.6 8.0 0.00 0.00 0.00 83 1010.9
20260505122206 11 21 3.2 9.7 0.00 0.00 0.00 82 1010.9
20260505121710 11 42 4.8 11.3 0.00 0.00 0.00 83 1011.0
20260505121215 11 54 4.8 11.3 0.00 0.00 0.00 83 1011.0
20260505120214 11 55 6.4 14.5 0.00 0.00 0.00 83 1011.0
20260505115209 11 83 6.4 14.5 0.00 0.00 0.00 83 1011.0
20260505114207 11 35 6.4 11.3 0.00 0.00 0.00 83 1011.0
20260505113736 11 90 4.8 9.7 0.00 0.00 0.00 83 1011.0
20260505113215 11 25 3.2 14.5 0.00 0.00 0.00 83 1011.0
20260505112219 11 54 4.8 14.5 0.00 0.00 0.00 83 1011.2
20260505111719 11 59 4.8 14.5 0.00 0.00 0.00 83 1011.2
20260505111209 11 45 3.2 14.5 0.00 0.00 0.00 83 1011.2
20260505110708 11 59 4.8 16.1 0.00 0.00 0.00 83 1011.2
20260505110209 11 11 6.4 16.1 0.00 0.00 0.00 82 1011.2
20260505102216 11 37 4.8 11.3 0.00 0.00 0.00 82 1011.3
20260505101718 11 27 1.6 11.3 0.00 0.00 0.00 81 1011.3
20260505101208 11 300 1.6 9.7 0.00 0.00 0.00 82 1011.4
20260505100710 11 24 3.2 8.0 0.00 0.00 0.00 81 1011.4
20260505100218 11 76 3.2 14.5 0.00 0.00 0.00 82 1011.4
20260505095706 11 51 4.8 14.5 0.00 0.00 0.00 81 1011.4
20260505095213 11 56 4.8 11.3 0.00 0.00 0.00 81 1011.4
20260505094212 11 71 6.4 11.3 0.00 0.00 0.00 82 1011.5
20260505093711 11 68 4.8 11.3 0.00 0.00 0.00 82 1011.5
20260505093217 11 71 4.8 9.7 0.00 0.00 0.00 82 1011.6
20260505092709 11 55 3.2 11.3 0.00 0.00 0.00 82 1011.6
20260505092215 11 320 3.2 19.3 0.00 0.00 0.00 82 1011.6
20260505091716 11 37 4.8 19.3 0.00 0.00 0.00 82 1011.5
20260505091210 10 28 3.2 19.3 0.00 0.00 0.00 83 1011.6
20260505090711 10 39 6.4 11.3 0.00 0.00 0.00 83 1011.6
20260505090216 10 0 4.8 17.7 0.00 0.00 0.00 83 1011.6
20260505085707 10 18 1.6 17.7 0.00 0.00 0.00 85 1011.6
20260505085216 10 83 3.2 17.7 0.00 0.00 0.00 85 1011.7
20260505084717 10 16 4.8 16.1 0.00 0.00 0.00 86 1011.7
20260505084215 9 61 8.0 16.1 0.00 0.00 0.00 86 1011.8
20260505083717 9 45 8.0 16.1 0.00 0.00 0.00 87 1011.9
20260505083206 9 37 6.4 16.1 0.00 0.00 0.00 88 1011.9
20260505082216 8 94 6.4 16.1 0.00 0.00 0.00 89 1011.9
20260505081717 8 38 6.4 11.3 0.00 0.00 0.00 89 1011.9
20260505081218 8 4 3.2 11.3 0.00 0.00 0.00 89 1012.0
20260505080715 8 10 3.2 11.3 0.00 0.00 0.00 89 1012.1
20260505080210 8 68 4.8 11.3 0.00 0.00 0.00 89 1012.2
20260505075716 8 68 6.4 11.3 0.00 0.00 0.00 89 1012.1
20260505075219 8 41 3.2 9.7 0.00 0.00 0.00 90 1012.2
20260505074715 8 59 3.2 9.7 0.00 0.00 0.00 90 1012.1
20260505074209 8 345 3.2 8.0 0.00 0.00 0.00 90 1012.1
20260505073707 8 44 3.2 8.0 0.00 0.00 0.00 90 1012.2
20260505073215 8 347 3.2 9.7 0.00 0.00 0.00 90 1012.1
20260505072715 8 47 1.6 11.3 0.00 0.00 0.00 89 1012.1
20260505072210 8 18 3.2 11.3 0.00 0.00 0.00 90 1012.1
20260505071708 8 32 3.2 9.7 0.00 0.00 0.00 90 1012.0
20260505071218 8 0 3.2 9.7 0.00 0.00 0.00 90 1012.0
20260505070715 8 52 3.2 8.0 0.00 0.00 0.00 90 1012.1
20260505070215 8 49 3.2 11.3 0.00 0.00 0.00 90 1012.1
20260505065706 8 83 3.2 11.3 0.00 0.00 0.00 90 1012.1
20260505065217 8 42 3.2 11.3 0.00 0.00 0.00 90 1012.1
20260505064719 8 357 4.8 8.0 0.00 0.00 0.00 90 1012.1
20260505064212 8 52 3.2 9.7 0.00 0.00 0.00 90 1012.1
20260505063718 8 89 4.8 11.3 0.00 0.00 0.00 90 1012.1
20260505063218 8 48 3.2 11.3 0.00 0.00 0.00 89 1012.0
20260505062714 8 54 6.4 11.3 0.00 0.00 0.00 89 1012.0
20260505062217 8 44 4.8 11.3 0.00 0.00 0.00 89 1012.0
20260505061709 8 66 3.2 9.7 0.00 0.00 0.00 90 1012.0
20260505060714 8 49 3.2 9.7 0.00 0.00 0.00 89 1012.0
20260505055218 8 69 6.4 14.5 0.00 0.00 0.00 89 1012.1
20260505053707 8 61 4.8 11.3 0.00 0.00 0.00 89 1012.0
20260505053207 8 14 1.6 11.3 0.00 0.00 0.00 88 1012.0
20260505052707 8 59 4.8 14.5 0.00 0.00 0.00 88 1012.0
20260505052209 8 73 4.8 14.5 0.00 0.00 0.00 88 1012.0
20260505051206 8 61 6.4 14.5 0.00 0.00 0.00 88 1011.9
20260505050716 8 48 4.8 14.5 0.00 0.00 0.00 88 1012.0
20260505050215 8 13 4.8 14.5 0.00 0.00 0.00 88 1012.0
20260505041714 8 351 6.4 11.3 0.00 0.00 0.00 88 1011.9
20260505041211 8 38 4.8 11.3 0.00 0.00 0.00 88 1011.8
20260505040713 8 51 3.2 14.5 0.00 0.00 0.00 88 1011.8
20260505040210 8 55 4.8 14.5 0.00 0.00 0.00 88 1011.8
20260505035709 8 10 3.2 14.5 0.00 0.00 0.00 88 1011.7
20260505035209 8 83 4.8 14.5 0.00 0.00 0.00 88 1011.7
20260505034717 8 73 1.6 14.5 0.00 0.00 0.00 88 1011.7
20260505034206 8 62 3.2 14.5 0.00 0.00 0.00 88 1011.7
20260505033714 8 54 6.4 17.7 0.00 0.00 0.00 88 1011.8
20260505033206 8 52 4.8 17.7 0.00 0.00 0.00 88 1011.9
20260505032710 8 42 1.6 11.3 0.00 0.00 0.00 88 1011.8
20260505032214 8 86 3.2 8.0 0.00 0.00 0.00 88 1011.8
20260505031708 8 0 3.2 8.0 0.00 0.00 0.00 88 1011.9
20260505031214 8 51 0.0 9.7 0.00 0.00 0.00 88 1011.9
20260505030719 8 56 3.2 14.5 0.00 0.00 0.00 88 1012.0
20260505030241 8 63 3.2 14.5 0.00 0.00 0.00 88 1012.0
20260505025716 8 59 4.8 14.5 0.00 0.00 0.00 88 1012.0
20260505025217 8 44 3.2 8.0 0.00 0.00 0.00 88 1012.0
20260505024709 8 21 3.2 6.4 0.00 0.00 0.00 88 1012.0
20260505024206 8 44 3.2 8.0 0.00 0.00 0.00 88 1012.1